EW4589 Weather Reports


Display with metric or nautical units.
time (UTC)temp
F
wind
direction
speed
MPH
gust
MPH
rain 1hr
in
rain 24hr
in
rain mn
in
humidity
%
barometer
mb
20210805011641 74 94 0.0 0.0 0.00 0.01 0.00 56 1017.6
20210805010147 74 94 0.0 0.0 0.00 0.01 0.00 57 1017.5
20210805004622 74 93 0.0 0.0 0.00 0.02 0.00 62 1017.5
20210805003121 74 104 0.0 0.0 0.00 0.02 0.00 63 1017.5
20210805001721 75 7 0.0 0.0 0.00 0.02 0.00 60 1017.4
20210805000140 75 6 0.0 0.0 0.00 0.02 0.00 63 1017.4
20210804234619 76 7 0.0 0.0 0.00 0.03 0.00 65 1017.2
20210804233111 76 7 0.0 0.0 0.00 0.03 0.00 66 1016.9
20210804231657 76 7 0.0 0.0 0.00 0.03 0.00 66 1016.9
20210804230100 77 91 0.0 1.0 0.00 0.03 0.00 65 1016.8
20210804224615 77 120 0.0 0.0 0.00 0.06 0.00 66 1016.6
20210804223113 78 49 0.0 0.0 0.00 0.06 0.00 66 1016.5
20210804221638 78 51 0.0 0.0 0.00 0.06 0.00 66 1016.4
20210804214652 79 97 0.0 1.0 0.00 0.09 0.00 66 1016.2
20210804211553 79 41 0.0 1.0 0.00 0.09 0.00 65 1016.3
20210804210119 81 102 0.0 0.0 0.00 0.09 0.00 62 1016.1
20210804204547 81 58 0.0 0.0 0.00 0.18 0.00 62 1016.2
20210804203136 80 24 0.0 0.0 0.00 0.18 0.00 65 1016.3
20210804201603 81 229 0.0 0.0 0.00 0.18 0.00 64 1016.3
20210804200123 81 131 0.0 1.0 0.00 0.18 0.00 62 1016.4
20210804194639 82 111 0.0 0.0 0.00 0.22 0.00 62 1016.5
20210804193056 81 167 0.0 2.0 0.00 0.22 0.00 63 1016.5
20210804191553 82 134 0.0 0.0 0.00 0.22 0.00 62 1016.7
20210804190047 80 11 0.0 0.0 0.00 0.22 0.00 65 1016.7
20210804184600 82 101 0.0 0.0 0.00 0.22 0.00 63 1016.7
20210804183030 80 166 0.0 0.0 0.00 0.22 0.00 66 1016.8
20210804181557 78 66 0.0 0.0 0.00 0.22 0.00 66 1016.8
20210804180057 79 88 0.0 0.0 0.00 0.22 0.00 66 1016.8
20210804174659 78 113 0.0 0.0 0.00 0.22 0.00 66 1016.9
20210804173037 77 129 0.0 1.0 0.00 0.22 0.00 66 1016.9
20210804171542 78 135 0.0 0.0 0.00 0.22 0.00 66 1016.9
20210804170035 77 98 0.0 0.0 0.00 0.22 0.00 67 1016.9
20210804164543 77 89 0.0 0.0 0.00 0.22 0.00 67 1017.1
20210804163019 76 142 0.0 0.0 0.00 0.22 0.00 67 1017.0
20210804161546 77 164 0.0 1.0 0.00 0.22 0.00 67 1016.9
20210804160044 77 108 0.0 0.0 0.00 0.22 0.00 67 1017.0
20210804154547 76 144 0.0 0.0 0.00 0.22 0.00 66 1016.9
20210804153012 75 220 0.0 0.0 0.00 0.22 0.00 67 1016.8
20210804151510 74 116 0.0 0.0 0.00 0.22 0.00 65 1016.9
20210804150033 74 170 0.0 1.0 0.00 0.22 0.00 66 1016.9
20210804144509 74 91 0.0 0.0 0.00 0.22 0.00 66 1016.7
20210804143004 74 97 0.0 0.0 0.00 0.22 0.00 66 1016.5
20210804141721 74 176 0.0 0.0 0.00 0.22 0.00 65 1016.4
20210804140133 73 115 0.0 1.0 0.00 0.22 0.00 62 1016.5
20210804134627 72 135 0.0 3.0 0.00 0.22 0.00 49 1016.4
20210804133133 72 89 0.0 0.0 0.00 0.22 0.00 45 1016.4
20210804131652 71 172 0.0 0.0 0.00 0.22 0.00 36 1016.4
20210804130053 70 202 0.0 1.0 0.00 0.22 0.00 28 1016.4
20210804124603 69 63 0.0 3.0 0.00 0.22 0.00 21 1016.4
20210804123136 69 70 0.0 0.0 0.00 0.22 0.00 18 1016.3
20210804121627 68 166 0.0 0.0 0.00 0.22 0.00 16 1016.3
20210804120046 68 96 0.0 0.0 0.00 0.22 0.00 16 1016.2
20210804114559 68 39 0.0 1.0 0.00 0.22 0.00 16 1016.1
20210804113033 68 205 0.0 0.0 0.00 0.22 0.00 14 1016.1
20210804111620 68 32 0.0 0.0 0.00 0.22 0.00 13 1015.8
20210804110056 68 132 0.0 0.0 0.00 0.22 0.00 13 1015.8
20210804104540 67 40 0.0 0.0 0.00 0.22 0.00 12 1015.5
20210804103034 67 103 0.0 0.0 0.00 0.22 0.00 11 1015.3
20210804101543 67 60 0.0 0.0 0.00 0.22 0.00 11 1015.2
20210804100058 67 128 0.0 1.0 0.00 0.22 0.00 11 1015.2
20210804094528 67 41 0.0 0.0 0.00 0.22 0.00 11 1015.1
20210804093036 67 107 0.0 0.0 0.00 0.22 0.00 11 1015.0
20210804091538 67 159 0.0 1.0 0.00 0.22 0.00 11 1014.9
20210804090029 67 137 0.0 0.0 0.00 0.22 0.00 11 1015.0
20210804084555 67 58 0.0 0.0 0.00 0.22 0.00 11 1015.0
20210804083041 67 229 0.0 0.0 0.00 0.22 0.00 10 1014.9
20210804081535 67 120 0.0 0.0 0.00 0.22 0.00 10 1014.9
20210804080024 67 132 0.0 0.0 0.00 0.22 0.00 10 1015.0
20210804074521 67 69 0.0 1.0 0.00 0.22 0.00 10 1015.1
20210804073017 67 113 0.0 0.0 0.00 0.22 0.00 11 1015.2
20210804071517 67 39 0.0 0.0 0.00 0.22 0.00 11 1015.4
20210804070017 67 94 0.0 0.0 0.00 0.22 0.00 11 1015.4
20210804064513 67 154 0.0 0.0 0.00 0.22 0.00 11 1015.5
20210804063034 67 160 0.0 0.0 0.00 0.22 0.00 11 1015.6
20210804061511 67 75 0.0 0.0 0.00 0.22 0.00 10 1015.7
20210804060030 67 98 0.0 0.0 0.00 0.22 0.00 10 1015.8
20210804054507 67 162 0.0 0.0 0.00 0.22 0.00 9 1015.8
20210804053008 68 79 0.0 0.0 0.00 0.22 0.00 9 1016.0
20210804051505 68 122 0.0 0.0 0.00 0.22 0.00 9 1016.3
20210804050010 68 73 0.0 0.0 0.00 0.22 0.00 9 1016.3
20210804044501 68 73 0.0 0.0 0.00 0.22 0.00 9 1016.5
20210804043119 67 191 0.0 0.0 0.00 0.22 0.00 9 1016.6
20210804041715 67 191 0.0 0.0 0.00 0.22 0.00 9 1016.7
20210804040113 67 191 0.0 0.0 0.00 0.22 0.00 9 1016.7
20210804034626 67 191 0.0 0.0 0.00 0.22 0.22 9 1016.7
20210804033202 67 189 0.0 0.0 0.00 0.22 0.22 9 1016.7
20210804031733 67 189 0.0 0.0 0.00 0.22 0.22 9 1016.7
20210804030152 67 193 0.0 0.0 0.00 0.22 0.22 9 1016.8
20210804024715 67 147 0.0 0.0 0.00 0.22 0.22 9 1016.8
20210804023133 67 84 0.0 0.0 0.00 0.22 0.22 9 1016.8
20210804021650 67 84 0.0 0.0 0.00 0.22 0.22 9 1017.0
20210804020125 67 84 0.0 0.0 0.01 0.22 0.22 9 1016.8
20210804014710 67 107 0.0 0.0 0.01 0.22 0.22 9 1016.7
20210804013149 67 107 0.0 0.0 0.01 0.22 0.22 10 1016.7